CW1569 Weather Reports


Display with metric or nautical units.
time (UTC)temp
F
wind
direction
speed
MPH
gust
MPH
rain 1hr
in
rain 24hr
in
rain mn
in
humidity
%
barometer
mb
20260904141346 76 360 7.0 14.0 0.00 0.03 0.00 87 1012.6
20260904140854 76 360 9.0 14.0 0.00 0.03 0.00 88 1012.6
20260904140341 75 360 6.0 11.0 0.00 0.03 0.00 89 1012.7
20260904135849 75 360 4.0 9.0 0.00 0.03 0.00 90 1012.8
20260904135334 75 360 5.0 10.0 0.00 0.03 0.00 91 1013.0
20260904134841 74 360 3.0 12.0 0.00 0.03 0.00 92 1012.9
20260904134350 74 360 6.0 14.0 0.00 0.03 0.00 93 1012.6
20260904133858 73 360 3.0 14.0 0.00 0.03 0.00 93 1012.7
20260904133324 73 360 6.0 10.0 0.00 0.03 0.00 93 1012.6
20260904132832 73 360 5.0 10.0 0.00 0.03 0.00 93 1012.7
20260904132342 73 360 6.0 12.0 0.00 0.03 0.00 93 1012.7
20260904131850 73 360 8.0 12.0 0.00 0.03 0.00 93 1012.8
20260904131339 73 360 4.0 10.0 0.00 0.03 0.00 94 1012.5
20260904130846 72 360 6.0 9.0 0.00 0.03 0.00 94 1012.6
20260904130400 72 360 3.0 7.0 0.00 0.03 0.00 94 1012.5
20260904125827 72 360 3.0 7.0 0.00 0.03 0.00 94 1012.5
20260904125336 72 360 3.0 8.0 0.00 0.03 0.00 94 1012.4
20260904124823 72 360 3.0 8.0 0.00 0.03 0.00 95 1012.3
20260904124332 72 360 2.0 7.0 0.00 0.03 0.00 95 1012.2
20260904123834 71 360 2.0 6.0 0.00 0.03 0.00 95 1011.9
20260904123324 71 360 2.0 5.0 0.00 0.03 0.00 95 1011.9
20260904122833 71 360 1.0 5.0 0.00 0.03 0.00 95 1011.9
20260904122323 71 360 2.0 4.0 0.00 0.03 0.00 95 1011.7
20260904121832 71 360 2.0 3.0 0.00 0.03 0.00 95 1011.6
20260904121341 71 360 1.0 4.0 0.00 0.03 0.00 95 1011.5
20260904120828 71 360 0.0 6.0 0.00 0.03 0.00 95 1011.5
20260904120338 71 360 2.0 6.0 0.00 0.03 0.00 94 1011.4
20260904115825 71 360 3.0 5.0 0.00 0.03 0.00 95 1011.4
20260904115333 71 360 1.0 6.0 0.00 0.03 0.00 95 1011.1
20260904114822 71 360 3.0 6.0 0.00 0.03 0.00 94 1010.9
20260904114333 71 360 2.0 7.0 0.00 0.03 0.00 94 1010.8
20260904113840 72 360 3.0 7.0 0.00 0.03 0.00 94 1010.7
20260904113327 72 360 5.0 8.0 0.00 0.03 0.00 94 1010.7
20260904112838 73 360 3.0 8.0 0.00 0.03 0.00 94 1010.7
20260904112325 73 360 2.0 6.0 0.00 0.03 0.00 95 1010.5
20260904111834 73 360 3.0 14.0 0.00 0.03 0.00 95 1010.5
20260904111325 73 360 5.0 14.0 0.00 0.03 0.00 95 1010.4
20260904110832 74 360 7.0 12.0 0.00 0.03 0.00 95 1010.4
20260904110321 74 360 6.0 9.0 0.00 0.03 0.00 95 1010.1
20260904105830 74 360 1.0 9.0 0.00 0.03 0.00 95 1010.1
20260904105338 74 360 5.0 9.0 0.00 0.03 0.00 95 1010.2
20260904104825 74 360 0.0 0.0 0.00 0.03 0.00 95 1010.0
20260904104331 74 360 0.0 0.0 0.00 0.03 0.00 95 1009.9
20260904103905 74 171 0.0 0.0 0.00 0.03 0.03 95 1009.9
20260904103355 74 171 0.0 0.0 0.00 0.03 0.03 95 1009.7
20260904102843 75 360 0.0 0.0 0.00 0.03 0.03 95 1009.8
20260904102331 75 360 0.0 0.0 0.00 0.03 0.03 95 1009.8
20260904101907 75 360 0.0 0.0 0.00 0.03 0.03 95 1009.8
20260904101356 75 360 0.0 0.0 0.00 0.03 0.03 94 1009.7
20260904100822 75 360 0.0 0.0 0.00 0.03 0.03 94 1009.7
20260904100358 75 360 0.0 0.0 0.00 0.03 0.03 94 1009.9
20260904095826 75 172 0.0 0.0 0.00 0.03 0.03 94 1009.7
20260904095335 75 360 0.0 0.0 0.00 0.03 0.03 94 1009.9
20260904094824 75 360 0.0 0.0 0.00 0.03 0.03 94 1009.8
20260904094336 75 360 0.0 0.0 0.00 0.03 0.03 93 1009.8
20260904093824 76 360 0.0 0.0 0.00 0.03 0.03 93 1009.6
20260904093330 76 360 0.0 0.0 0.00 0.03 0.03 94 1009.5
20260904092840 76 360 0.0 0.0 0.00 0.03 0.03 94 1009.5
20260904092330 76 360 0.0 0.0 0.00 0.03 0.03 94 1009.5
20260904091906 76 360 0.0 0.0 0.00 0.03 0.03 95 1009.6
20260904091356 75 360 0.0 1.0 0.00 0.03 0.03 95 1009.6
20260904090823 75 360 0.0 1.0 0.00 0.03 0.03 95 1009.5
20260904090359 75 171 0.0 1.0 0.00 0.03 0.03 96 1009.6
20260904085826 75 360 0.0 5.0 0.00 0.03 0.03 96 1009.6
20260904085336 75 360 0.0 5.0 0.00 0.03 0.03 96 1009.5
20260904084846 75 360 2.0 4.0 0.00 0.03 0.03 96 1009.4
20260904084357 74 360 2.0 4.0 0.00 0.03 0.03 96 1009.4
20260904083842 74 360 1.0 4.0 0.00 0.03 0.03 96 1009.4
20260904083331 74 360 2.0 4.0 0.00 0.03 0.03 96 1009.5
20260904082840 73 169 2.0 4.0 0.00 0.03 0.03 96 1009.5
20260904082330 73 360 3.0 4.0 0.00 0.03 0.03 96 1009.6
20260904081836 73 360 0.0 0.0 0.00 0.03 0.03 95 1009.7
20260904081325 73 360 0.0 0.0 0.00 0.03 0.03 95 1009.9
20260904080833 73 360 0.0 0.0 0.00 0.03 0.03 95 1010.1
20260904080322 73 360 0.0 0.0 0.00 0.03 0.03 95 1010.4
20260904075830 73 360 0.0 0.0 0.00 0.03 0.03 95 1010.5
20260904075336 73 360 0.0 0.0 0.00 0.03 0.03 95 1010.4
20260904074826 73 360 0.0 0.0 0.00 0.03 0.03 95 1010.4
20260904074336 73 360 0.0 0.0 0.00 0.03 0.03 95 1010.3
20260904073823 73 360 0.0 0.0 0.00 0.03 0.03 95 1009.9
20260904073333 74 360 0.0 0.0 0.00 0.03 0.03 95 1009.9
20260904072824 74 360 0.0 0.0 0.00 0.03 0.03 95 1010.0
20260904072331 74 360 0.0 0.0 0.00 0.03 0.03 95 1010.0
20260904071822 74 360 0.0 0.0 0.00 0.03 0.03 95 1009.9
20260904071333 74 161 0.0 0.0 0.00 0.03 0.03 94 1009.9
20260904070822 74 360 0.0 0.0 0.00 0.03 0.03 95 1010.0
20260904070333 74 360 0.0 0.0 0.00 0.03 0.03 95 1010.0
20260904065822 74 360 0.0 0.0 0.00 0.03 0.03 95 1009.8
20260904065331 74 360 0.0 0.0 0.00 0.03 0.03 95 1009.8
20260904064822 74 360 0.0 0.0 0.00 0.03 0.03 95 1009.9
20260904064332 74 360 0.0 3.0 0.00 0.03 0.03 96 1009.8
20260904063840 74 360 0.0 4.0 0.00 0.03 0.03 96 1009.7
20260904063329 74 360 2.0 5.0 0.00 0.03 0.03 96 1009.8
20260904062837 74 360 2.0 6.0 0.00 0.03 0.03 96 1009.7
20260904062327 74 360 2.0 6.0 0.00 0.03 0.03 96 1009.8
20260904061859 74 360 4.0 5.0 0.00 0.03 0.03 96 1010.0
20260904061348 73 360 1.0 4.0 0.00 0.03 0.03 96 1010.1
20260904060836 73 360 1.0 5.0 0.00 0.03 0.03 96 1010.1
20260904060325 73 360 3.0 5.0 0.00 0.03 0.03 96 1010.2
20260904055834 73 360 2.0 4.0 0.00 0.03 0.03 96 1010.4
20260904055343 73 360 2.0 5.0 0.00 0.03 0.03 96 1010.6
20260904054832 73 360 1.0 3.0 0.00 0.03 0.03 96 1010.6
20260904054342 73 360 0.0 3.0 0.00 0.03 0.03 96 1010.7
20260904053847 73 360 0.0 3.0 0.00 0.03 0.03 96 1010.9
20260904053336 73 360 1.0 3.0 0.00 0.03 0.03 96 1010.9
20260904052845 73 360 1.0 2.0 0.00 0.03 0.03 95 1010.8
20260904052333 73 360 0.0 2.0 0.00 0.03 0.03 95 1011.0
20260904051821 73 360 0.0 2.0 0.00 0.03 0.03 96 1011.2
20260904051332 73 360 1.0 2.0 0.00 0.03 0.03 96 1011.2
20260904050836 73 360 1.0 2.0 0.00 0.03 0.03 95 1011.1
20260904050324 73 360 0.0 2.0 0.00 0.03 0.03 95 1011.0
20260904045834 73 360 0.0 0.0 0.00 0.03 0.03 95 1011.0
20260904045324 73 360 0.0 0.0 0.00 0.03 0.03 95 1011.0
20260904044834 73 360 0.0 0.0 0.00 0.03 0.03 95 1010.9
20260904044324 73 360 0.0 0.0 0.00 0.03 0.03 95 1010.9
20260904043832 73 360 0.0 1.0 0.00 0.03 0.03 95 1011.0
20260904043322 73 360 0.0 1.0 0.00 0.03 0.03 95 1011.0
20260904042832 73 360 0.0 1.0 0.00 0.03 0.03 94 1011.0
20260904042409 73 360 0.0 1.0 0.00 0.03 0.03 94 1011.0
20260904041857 73 360 0.0 1.0 0.00 0.03 0.03 94 1011.1
20260904041346 73 360 0.0 1.0 0.00 0.03 0.03 94 1011.1
20260904040854 73 360 0.0 2.0 0.00 0.03 0.03 94 1011.2
20260904040343 74 360 1.0 4.0 0.00 0.03 0.03 94 1011.3
20260904035830 73 360 1.0 4.0 0.00 0.03 0.03 94 1011.3
20260904035340 74 360 1.0 2.0 0.00 0.03 0.03 94 1011.3
20260904034829 74 360 0.0 1.0 0.00 0.03 0.03 94 1011.3
20260904034335 74 360 0.0 2.0 0.00 0.03 0.03 94 1011.3
20260904033822 74 360 1.0 4.0 0.00 0.03 0.03 94 1011.4
20260904033331 74 360 1.0 4.0 0.00 0.03 0.03 94 1011.4
20260904032821 74 360 2.0 4.0 0.00 0.03 0.03 94 1011.6
20260904032330 74 360 2.0 4.0 0.00 0.03 0.03 94 1011.7
20260904031840 74 360 0.0 5.0 0.00 0.03 0.03 94 1011.6
20260904031349 74 360 2.0 5.0 0.00 0.03 0.03 94 1011.6
20260904030903 74 360 2.0 4.0 0.00 0.03 0.03 94 1011.6
20260904030350 74 360 1.0 5.0 0.00 0.03 0.03 94 1011.5
20260904025838 74 360 2.0 5.0 0.00 0.03 0.03 94 1011.7
20260904025327 74 360 0.0 2.0 0.00 0.03 0.03 94 1011.5
20260904024836 74 360 0.0 3.0 0.00 0.03 0.03 94 1011.5
20260904024347 74 360 1.0 3.0 0.00 0.03 0.03 93 1011.6
20260904023834 74 360 0.0 1.0 0.00 0.03 0.03 93 1011.5
20260904023324 74 360 0.0 3.0 0.00 0.03 0.03 93 1011.3
20260904022856 74 360 1.0 3.0 0.00 0.03 0.03 93 1011.5
20260904022325 74 360 0.0 1.0 0.00 0.03 0.03 92 1011.4
20260904021835 74 360 0.0 2.0 0.00 0.03 0.03 92 1011.2
20260904021326 74 360 0.0 3.0 0.00 0.03 0.03 92 1011.1
20260904020834 74 360 1.0 3.0 0.00 0.03 0.03 92 1011.1
20260904020325 74 360 0.0 0.0 0.00 0.03 0.03 92 1011.1
20260904015900 74 360 0.0 3.0 0.00 0.03 0.03 92 1011.0
20260904015347 74 360 1.0 3.0 0.00 0.03 0.03 92 1011.0
20260904014837 74 360 1.0 3.0 0.00 0.03 0.03 91 1011.0
20260904014329 74 360 0.0 2.0 0.00 0.03 0.03 91 1011.0
20260904013835 75 360 0.0 1.0 0.00 0.03 0.03 91 1010.9
20260904013323 75 360 0.0 1.0 0.00 0.03 0.03 90 1010.9
20260904012833 75 360 0.0 1.0 0.00 0.03 0.03 90 1010.7
20260904012321 75 360 0.0 5.0 0.00 0.03 0.03 90 1010.7
20260904011830 75 360 0.0 5.0 0.00 0.03 0.03 90 1010.6
20260904011341 75 360 0.0 3.0 0.00 0.03 0.03 90 1010.6
20260904010828 75 360 0.0 4.0 0.00 0.03 0.03 89 1010.6
20260904010337 75 360 3.0 5.0 0.00 0.03 0.03 89 1010.6
20260904005827 75 360 2.0 5.0 0.00 0.03 0.03 88 1010.5
20260904005335 76 360 1.0 5.0 0.00 0.03 0.03 88 1010.5
20260904004841 76 360 3.0 5.0 0.00 0.03 0.03 88 1010.4
20260904004353 76 360 0.0 3.0 0.00 0.03 0.03 88 1010.2
20260904003839 76 360 0.0 5.0 0.00 0.03 0.03 87 1010.1
20260904003328 76 360 1.0 5.0 0.00 0.03 0.03 87 1010.2
20260904002837 77 360 1.0 3.0 0.00 0.03 0.03 86 1010.0
20260904002328 77 360 0.0 3.0 0.00 0.03 0.03 86 1009.9
20260904001838 77 360 1.0 5.0 0.00 0.03 0.03 85 1009.8
20260904001328 77 360 1.0 5.0 0.00 0.03 0.03 84 1009.8
20260904000836 78 360 0.0 3.0 0.00 0.03 0.03 84 1009.8
20260904000325 78 360 1.0 3.0 0.00 0.03 0.03 83 1009.7
20260903235834 78 360 0.0 4.0 0.00 0.03 0.03 82 1009.7
20260903235323 79 360 0.0 4.0 0.00 0.03 0.03 81 1009.7
20260903234833 79 360 1.0 4.0 0.00 0.03 0.03 80 1009.7
20260903234323 79 360 1.0 3.0 0.00 0.03 0.03 78 1009.7
20260903233830 80 360 1.0 3.0 0.00 0.03 0.03 77 1009.9
20260903233338 80 360 0.0 3.0 0.00 0.03 0.03 76 1009.9
20260903232828 80 360 0.0 4.0 0.00 0.03 0.03 75 1009.9
20260903232340 81 360 0.0 8.0 0.00 0.03 0.03 73 1010.1
20260903231849 81 360 4.0 8.0 0.00 0.03 0.03 71 1010.2
20260903231334 82 360 5.0 7.0 0.00 0.03 0.03 69 1010.2
20260903230822 83 360 2.0 8.0 0.00 0.03 0.03 68 1010.1
20260903230331 84 360 3.0 9.0 0.00 0.03 0.03 67 1010.1
20260903225839 85 360 4.0 9.0 0.00 0.03 0.03 69 1010.1
20260903225329 86 360 3.0 7.0 0.00 0.03 0.03 71 1010.1
20260903224839 86 360 1.0 5.0 0.00 0.03 0.03 71 1010.0
20260903224330 86 360 1.0 5.0 0.00 0.03 0.03 72 1010.0
20260903223837 86 360 3.0 6.0 0.00 0.03 0.03 71 1010.0
20260903223346 86 360 4.0 6.0 0.00 0.03 0.03 70 1009.9
20260903222834 86 360 3.0 7.0 0.00 0.03 0.03 70 1009.9
20260903222324 86 360 2.0 10.0 0.00 0.03 0.03 72 1010.0
20260903221834 86 360 2.0 10.0 0.00 0.03 0.03 70 1009.9
20260903221324 86 360 3.0 7.0 0.00 0.03 0.03 72 1010.1
20260903220833 86 360 3.0 8.0 0.00 0.03 0.03 72 1010.1
20260903220340 86 360 3.0 8.0 0.00 0.03 0.03 71 1010.1
20260903215829 86 360 5.0 8.0 0.00 0.03 0.03 71 1010.1
20260903215339 86 360 3.0 8.0 0.00 0.03 0.03 72 1010.2
20260903214828 86 360 5.0 8.0 0.00 0.03 0.03 72 1010.2
20260903214338 86 360 4.0 8.0 0.00 0.03 0.03 71 1010.2
20260903213826 86 360 6.0 8.0 0.00 0.03 0.03 71 1010.1
20260903213334 86 360 2.0 7.0 0.00 0.03 0.03 72 1010.2
20260903212838 85 360 3.0 7.0 0.00 0.03 0.03 72 1010.2
20260903212348 85 360 3.0 8.0 0.00 0.03 0.03 73 1010.2
20260903211835 85 360 2.0 8.0 0.00 0.03 0.03 72 1010.2
20260903211327 85 360 4.0 6.0 0.00 0.03 0.03 73 1010.2
20260903210834 85 360 4.0 6.0 0.00 0.03 0.03 73 1010.3
20260903210322 85 360 3.0 7.0 0.00 0.03 0.03 74 1010.4
20260903205859 84 360 4.0 7.0 0.00 0.03 0.03 73 1010.4
20260903205347 85 360 2.0 5.0 0.00 0.03 0.03 74 1010.5
20260903204857 85 360 0.0 5.0 0.00 0.03 0.03 73 1010.7
20260903204347 85 360 1.0 4.0 0.00 0.03 0.03 73 1010.7
20260903203833 84 360 1.0 5.0 0.00 0.03 0.03 74 1010.8
20260903203323 84 360 0.0 5.0 0.00 0.03 0.03 73 1010.7
20260903202832 85 360 2.0 5.0 0.00 0.03 0.03 72 1010.8
20260903202322 85 141 0.0 5.0 0.00 0.03 0.03 71 1010.7
20260903201831 85 148 3.0 5.0 0.00 0.03 0.03 74 1010.7
20260903201341 85 360 2.0 5.0 0.00 0.03 0.03 73 1010.6
20260903200828 85 360 1.0 4.0 0.00 0.03 0.03 71 1010.7
20260903200358 85 360 0.0 0.0 0.00 0.03 0.03 71 1010.8
20260903195828 85 360 0.0 1.0 0.00 0.03 0.03 71 1010.9
20260903195336 84 360 0.0 0.0 0.00 0.03 0.03 72 1011.0
20260903194823 84 360 0.0 4.0 0.00 0.03 0.03 75 1011.1
20260903194333 83 360 0.0 4.0 0.00 0.03 0.03 76 1011.1
20260903193839 83 360 2.0 5.0 0.00 0.03 0.03 74 1011.2
20260903193349 83 360 2.0 5.0 0.00 0.03 0.03 75 1011.3
20260903192837 83 360 2.0 6.0 0.00 0.03 0.03 75 1011.3
20260903192325 83 360 0.0 6.0 0.00 0.03 0.03 76 1011.4
20260903191835 82 360 1.0 4.0 0.00 0.03 0.03 76 1011.3
20260903191326 82 360 1.0 5.0 0.00 0.03 0.03 75 1011.4
20260903190834 82 360 2.0 4.0 0.00 0.03 0.03 76 1011.4
20260903190323 81 360 0.0 5.0 0.00 0.03 0.03 79 1011.2
20260903185832 80 360 2.0 7.0 0.00 0.03 0.03 80 1011.0
20260903185321 80 360 2.0 7.0 0.00 0.03 0.03 79 1010.9
20260903184858 80 360 6.0 7.0 0.00 0.03 0.03 79 1010.9
20260903184328 80 360 3.0 7.0 0.00 0.03 0.03 80 1010.9
20260903183858 79 360 5.0 7.0 0.00 0.03 0.03 80 1010.8
20260903183347 79 360 4.0 6.0 0.00 0.03 0.03 80 1010.9
20260903182855 79 360 3.0 6.0 0.00 0.03 0.03 81 1011.0
20260903182324 79 360 3.0 6.0 0.00 0.03 0.03 82 1011.1
20260903181833 79 360 1.0 4.0 0.00 0.03 0.03 81 1011.2
20260903181343 78 360 1.0 4.0 0.00 0.03 0.03 84 1011.3
20260903180850 78 360 1.0 3.0 0.00 0.03 0.03 85 1011.3
20260903180338 77 360 0.0 2.0 0.00 0.03 0.03 86 1011.5
20260903175827 76 360 0.0 3.0 0.00 0.03 0.03 89 1011.5
20260903175337 76 360 1.0 6.0 0.00 0.03 0.03 90 1011.5
20260903174827 75 360 1.0 6.0 0.00 0.03 0.03 91 1011.6
20260903174338 74 360 3.0 6.0 0.00 0.03 0.03 91 1011.7
20260903173826 74 360 3.0 6.0 0.00 0.03 0.03 92 1011.9
20260903173335 74 360 3.0 6.0 0.00 0.03 0.03 94 1012.1
20260903172842 73 360 3.0 9.0 0.00 0.03 0.03 93 1012.0
20260903172352 73 360 2.0 9.0 0.00 0.03 0.03 93 1012.0
20260903171838 73 360 5.0 8.0 0.00 0.03 0.03 93 1012.0
20260903171330 72 360 2.0 7.0 0.00 0.03 0.03 93 1012.4
20260903170833 72 46 2.0 8.0 0.00 0.03 0.03 93 1012.4
20260903170343 72 360 4.0 9.0 0.00 0.03 0.03 93 1012.6
20260903165858 72 360 3.0 9.0 0.01 0.03 0.03 92 1012.6
20260903165326 72 360 1.0 9.0 0.03 0.03 0.03 92 1012.8
20260903164833 72 360 4.0 9.0 0.03 0.03 0.03 91 1013.1
20260903164343 72 360 4.0 9.0 0.03 0.03 0.03 91 1013.1
20260903163850 72 360 4.0 15.0 0.03 0.03 0.03 90 1013.2
20260903163336 73 42 5.0 15.0 0.03 0.03 0.03 89 1013.0
20260903162847 73 360 3.0 13.0 0.03 0.03 0.03 88 1013.2
20260903162333 74 360 7.0 15.0 0.03 0.03 0.03 87 1013.1
20260903161821 75 360 7.0 15.0 0.03 0.03 0.03 88 1013.3
20260903161333 76 360 5.0 14.0 0.03 0.03 0.03 88 1013.3
20260903160840 76 46 4.0 15.0 0.03 0.03 0.03 88 1013.3
20260903160348 77 360 7.0 16.0 0.03 0.03 0.03 85 1013.0
20260903155853 79 360 7.0 16.0 0.02 0.02 0.02 83 1012.7
20260903155339 79 360 8.0 15.0 0.00 0.00 0.00 82 1012.7
20260903154831 80 252 5.0 12.0 0.00 0.00 0.00 83 1012.7
20260903154340 80 265 3.0 10.0 0.00 0.00 0.00 83 1012.6
20260903153847 80 360 3.0 6.0 0.00 0.00 0.00 83 1012.4
20260903153356 80 360 1.0 5.0 0.00 0.00 0.00 83 1012.2
20260903152825 80 23 2.0 7.0 0.00 0.00 0.00 83 1012.1
20260903152334 80 26 3.0 8.0 0.00 0.00 0.00 82 1012.0
20260903151823 81 360 3.0 8.0 0.00 0.00 0.00 81 1011.9
20260903151331 81 360 3.0 9.0 0.00 0.00 0.00 80 1011.9
20260903150839 82 360 3.0 13.0 0.00 0.00 0.00 79 1011.9
20260903150328 82 360 5.0 13.0 0.00 0.00 0.00 78 1012.1
20260903145837 82 360 6.0 14.0 0.00 0.00 0.00 78 1012.0
20260903145324 83 360 5.0 18.0 0.00 0.00 0.00 77 1011.8
20260903144834 83 360 12.0 18.0 0.00 0.00 0.00 76 1011.9
20260903144323 84 360 3.0 5.0 0.00 0.00 0.00 77 1011.6
20260903143855 84 360 1.0 5.0 0.00 0.00 0.00 76 1011.3
20260903143340 84 360 2.0 5.0 0.00 0.00 0.00 76 1011.1
20260903142845 84 360 2.0 5.0 0.00 0.00 0.00 76 1011.0
20260903142335 84 211 2.0 8.0 0.00 0.00 0.00 75 1011.0
20260903141847 84 209 3.0 9.0 0.00 0.00 0.00 75 1011.1